Tracking 27086 objects as of 22-Mar-2023
HD Live streaming from Space Station
objects crossing your sky now

MINOTAUR 4 R/B

Track MINOTAUR 4 R/B now!
10-day predictions


NORAD ID: 37228
Int'l Code: 2010-062G
Perigee: 620.1 km
Apogee: 653.9 km
Inclination: 72.0 °
Period: 97.3 minutes
Semi major axis: 7007 km
RCS: Unknown
Launch date: November 20, 2010
Source: United States (US)
Launch site: Kodiak Island, Alaska (KODAK)

Note: This is a ROCKET BODY
Your satellite tracking list
Your tracking list is empty




NASA's NSSDC Master Catalog

Two Line Element Set (TLE):
1 37228U 10062G   23031.72562603 0.00001038  00000-0  13689-3 0    06
2 37228  71.9751   9.6101 0024165 286.0596  73.9645 14.79831704    03
Source of the keplerian elements: McCants